Time,TemperatureF,DewpointF,PressureIn,WindDirection,WindDirectionDegrees,WindSpeedMPH,WindSpeedGustMPH,Humidity,HourlyPrecipIn,Conditions,Clouds,dailyrainin,SolarRadiationWatts/m^2,SoftwareType,DateUTC
2013-05-14 00:14:00,73.0,64.0,30.36,ENE,77,18.0,34.0,73,0.00,,,0.00,0.000000,,2013-05-14 10:14:00,
2013-05-14 00:25:00,73.0,64.0,30.36,ENE,77,18.0,34.0,73,0.00,,,0.00,0.000000,,2013-05-14 10:25:00,
2013-05-14 00:32:00,73.0,64.0,30.36,ENE,77,18.0,34.0,73,0.00,,,0.00,0.000000,,2013-05-14 10:32:00,
2013-05-14 00:42:00,73.0,64.0,30.36,ENE,77,18.0,34.0,73,0.00,,,0.00,0.000000,,2013-05-14 10:42:00,
2013-05-14 00:52:00,73.0,64.0,30.36,ENE,77,18.0,34.0,73,0.00,,,0.00,0.000000,,2013-05-14 10:52:00,
2013-05-14 01:11:00,72.0,65.0,30.35,ENE,76,18.0,33.0,79,0.00,,,0.00,0.000000,,2013-05-14 11:11:00,
2013-05-14 01:21:00,72.0,65.0,30.35,ENE,76,18.0,33.0,79,0.00,,,0.00,0.000000,,2013-05-14 11:21:00,
2013-05-14 01:32:00,72.0,65.0,30.35,ENE,76,18.0,33.0,79,0.00,,,0.00,0.000000,,2013-05-14 11:32:00,
2013-05-14 01:43:00,72.0,65.0,30.35,ENE,76,18.0,33.0,79,0.00,,,0.00,0.000000,,2013-05-14 11:43:00,
2013-05-14 01:52:00,72.0,65.0,30.35,ENE,76,18.0,33.0,79,0.00,,,0.00,0.000000,,2013-05-14 11:52:00,
2013-05-14 02:21:00,72.0,64.0,30.32,East,80,20.0,35.0,77,0.00,,,-99.99,0.000000,,2013-05-14 12:21:00,
2013-05-14 02:32:00,72.0,64.0,30.32,East,80,20.0,35.0,77,0.00,,,-99.99,0.000000,,2013-05-14 12:32:00,
2013-05-14 02:42:00,72.0,64.0,30.32,East,80,20.0,35.0,77,0.00,,,-99.99,0.000000,,2013-05-14 12:42:00,
2013-05-14 02:51:00,72.0,64.0,30.32,East,80,20.0,35.0,77,0.00,,,-99.99,0.000000,,2013-05-14 12:51:00,
2013-05-14 03:22:00,72.0,64.0,30.32,ENE,67,19.0,35.0,77,0.00,,,0.00,0.000000,,2013-05-14 13:22:00,
2013-05-14 03:32:00,72.0,64.0,30.32,ENE,67,19.0,35.0,77,0.00,,,0.00,0.000000,,2013-05-14 13:32:00,
2013-05-14 03:41:00,72.0,64.0,30.32,ENE,67,19.0,35.0,77,0.00,,,0.00,0.000000,,2013-05-14 13:41:00,
2013-05-14 03:52:00,72.0,64.0,30.32,ENE,67,19.0,35.0,77,0.00,,,0.00,0.000000,,2013-05-14 13:52:00,
2013-05-14 04:22:00,73.0,67.0,30.33,ENE,70,18.0,30.0,82,0.00,,,0.00,0.000000,,2013-05-14 14:22:00,
2013-05-14 04:31:00,73.0,67.0,30.33,ENE,70,18.0,30.0,82,0.00,,,0.00,0.000000,,2013-05-14 14:31:00,
2013-05-14 04:41:00,73.0,67.0,30.33,ENE,70,18.0,30.0,82,0.00,,,0.00,0.000000,,2013-05-14 14:41:00,
2013-05-14 04:52:00,73.0,67.0,30.33,ENE,70,18.0,30.0,82,0.00,,,0.00,0.000000,,2013-05-14 14:52:00,
2013-05-14 04:53:00,73.0,67.0,30.34,ENE,77,20.0,36.0,81,0.00,,,-99.99,0.000000,,2013-05-14 14:53:00,
2013-05-14 05:12:00,73.0,67.0,30.34,ENE,77,20.0,36.0,81,0.00,,,-99.99,0.000000,,2013-05-14 15:12:00,
2013-05-14 05:21:00,73.0,67.0,30.34,ENE,77,20.0,36.0,81,0.00,,,-99.99,0.000000,,2013-05-14 15:21:00,
2013-05-14 05:32:00,73.0,67.0,30.34,ENE,77,20.0,36.0,81,0.00,,,-99.99,0.000000,,2013-05-14 15:32:00,
2013-05-14 05:43:00,73.0,67.0,30.34,ENE,77,20.0,36.0,81,0.00,,,-99.99,0.000000,,2013-05-14 15:43:00,
2013-05-14 05:53:00,73.0,65.0,30.34,ENE,65,21.0,36.0,75,0.00,,,0.00,0.000000,,2013-05-14 15:53:00,
2013-05-14 06:12:00,73.0,65.0,30.34,ENE,65,21.0,36.0,75,0.00,,,0.00,0.000000,,2013-05-14 16:12:00,
2013-05-14 06:23:00,73.0,65.0,30.34,ENE,65,21.0,36.0,75,0.00,,,0.00,0.000000,,2013-05-14 16:23:00,
2013-05-14 06:33:00,73.0,65.0,30.34,ENE,65,21.0,36.0,75,0.00,,,0.00,0.000000,,2013-05-14 16:33:00,
2013-05-14 06:43:00,73.0,65.0,30.34,ENE,65,21.0,36.0,75,0.00,,,0.00,0.000000,,2013-05-14 16:43:00,
2013-05-14 07:13:00,73.0,64.0,30.35,ENE,69,19.0,31.0,73,0.00,,,0.00,0.000000,,2013-05-14 17:13:00,
2013-05-14 07:24:00,73.0,64.0,30.35,ENE,69,19.0,31.0,73,0.00,,,0.00,0.000000,,2013-05-14 17:24:00,
2013-05-14 07:32:00,73.0,64.0,30.35,ENE,69,19.0,31.0,73,0.00,,,0.00,0.000000,,2013-05-14 17:32:00,
2013-05-14 07:43:00,73.0,64.0,30.35,ENE,69,19.0,31.0,73,0.00,,,0.00,0.000000,,2013-05-14 17:43:00,
2013-05-14 07:52:00,73.0,64.0,30.35,ENE,69,19.0,31.0,73,0.00,,,0.00,0.000000,,2013-05-14 17:52:00,
2013-05-14 08:22:00,75.0,67.0,30.36,ENE,73,20.0,32.0,75,0.00,,,0.00,96.000000,,2013-05-14 18:22:00,
2013-05-14 08:32:00,75.0,67.0,30.36,ENE,73,20.0,32.0,75,0.00,,,0.00,96.000000,,2013-05-14 18:32:00,
2013-05-14 08:42:00,75.0,67.0,30.36,ENE,73,20.0,32.0,75,0.00,,,0.00,96.000000,,2013-05-14 18:42:00,
2013-05-14 08:52:00,75.0,67.0,30.36,ENE,73,20.0,32.0,75,0.00,,,0.00,96.000000,,2013-05-14 18:52:00,
2013-05-14 09:22:00,78.0,68.0,30.37,East,83,23.0,35.0,72,0.00,,,0.00,237.000000,,2013-05-14 19:22:00,
2013-05-14 09:31:00,78.0,68.0,30.37,East,83,23.0,35.0,72,0.00,,,0.00,237.000000,,2013-05-14 19:31:00,
2013-05-14 09:42:00,78.0,68.0,30.37,East,83,23.0,35.0,72,0.00,,,0.00,237.000000,,2013-05-14 19:42:00,
2013-05-14 09:52:00,78.0,68.0,30.37,East,83,23.0,35.0,72,0.00,,,0.00,237.000000,,2013-05-14 19:52:00,
2013-05-14 10:11:00,77.0,69.0,30.38,East,81,26.0,45.0,76,0.00,,,0.00,623.000000,,2013-05-14 20:11:00,
2013-05-14 10:23:00,77.0,69.0,30.38,East,81,26.0,45.0,76,0.00,,,0.00,623.000000,,2013-05-14 20:23:00,
2013-05-14 10:32:00,77.0,69.0,30.38,East,81,26.0,45.0,76,0.00,,,0.00,623.000000,,2013-05-14 20:32:00,
2013-05-14 10:44:00,77.0,69.0,30.38,East,81,26.0,45.0,76,0.00,,,0.00,623.000000,,2013-05-14 20:44:00,
2013-05-14 10:51:00,77.0,69.0,30.38,East,81,26.0,45.0,76,0.00,,,0.00,623.000000,,2013-05-14 20:51:00,
2013-05-14 11:12:00,79.0,69.0,30.38,East,83,23.0,42.0,71,0.00,,,0.00,847.000000,,2013-05-14 21:12:00,
2013-05-14 11:22:00,79.0,69.0,30.38,East,83,23.0,42.0,71,0.00,,,0.00,847.000000,,2013-05-14 21:22:00,
2013-05-14 11:33:00,79.0,69.0,30.38,East,83,23.0,42.0,71,0.00,,,0.00,847.000000,,2013-05-14 21:33:00,
2013-05-14 11:42:00,79.0,69.0,30.38,East,83,23.0,42.0,71,0.00,,,0.00,847.000000,,2013-05-14 21:42:00,
2013-05-14 11:52:00,79.0,69.0,30.38,East,83,23.0,42.0,71,0.00,,,0.00,847.000000,,2013-05-14 21:52:00,
2013-05-14 11:53:00,78.0,67.0,30.38,East,92,24.0,38.0,69,0.00,,,0.00,1084.000000,,2013-05-14 21:53:00,
2013-05-14 12:13:00,78.0,67.0,30.38,East,92,24.0,38.0,69,0.00,,,0.00,1084.000000,,2013-05-14 22:13:00,
2013-05-14 12:24:00,78.0,67.0,30.38,East,92,24.0,38.0,69,0.00,,,0.00,1084.000000,,2013-05-14 22:24:00,
2013-05-14 12:34:00,78.0,67.0,30.38,East,92,24.0,38.0,69,0.00,,,0.00,1084.000000,,2013-05-14 22:34:00,
2013-05-14 12:45:00,78.0,67.0,30.38,East,92,24.0,38.0,69,0.00,,,0.00,1084.000000,,2013-05-14 22:45:00,
2013-05-14 13:21:00,80.0,68.0,30.36,East,85,24.0,39.0,66,0.00,,,0.00,1192.000000,,2013-05-14 23:21:00,
2013-05-14 13:31:00,80.0,68.0,30.36,East,85,24.0,39.0,66,0.00,,,0.00,1192.000000,,2013-05-14 23:31:00,
2013-05-14 13:44:00,80.0,68.0,30.36,East,85,24.0,39.0,66,0.00,,,0.00,1192.000000,,2013-05-14 23:44:00,
2013-05-14 13:52:00,80.0,68.0,30.36,East,85,24.0,39.0,66,0.00,,,0.00,1192.000000,,2013-05-14 23:52:00,
2013-05-14 14:21:00,79.0,67.0,30.36,East,88,22.0,36.0,66,0.00,,,0.00,1216.000000,,2013-05-15 00:21:00,
2013-05-14 14:32:00,79.0,67.0,30.36,East,88,22.0,36.0,66,0.00,,,0.00,1216.000000,,2013-05-15 00:32:00,
2013-05-14 14:41:00,79.0,67.0,30.36,East,88,22.0,36.0,66,0.00,,,0.00,1216.000000,,2013-05-15 00:41:00,
2013-05-14 14:51:00,79.0,67.0,30.36,East,88,22.0,36.0,66,0.00,,,0.00,1216.000000,,2013-05-15 00:51:00,
2013-05-14 15:21:00,79.0,67.0,30.36,East,86,22.0,37.0,67,0.00,,,0.00,1196.000000,,2013-05-15 01:21:00,
2013-05-14 15:31:00,79.0,67.0,30.36,East,86,22.0,37.0,67,0.00,,,0.00,1196.000000,,2013-05-15 01:31:00,
2013-05-14 15:42:00,79.0,67.0,30.36,East,86,22.0,37.0,67,0.00,,,0.00,1196.000000,,2013-05-15 01:42:00,
2013-05-14 15:52:00,79.0,67.0,30.36,East,86,22.0,37.0,67,0.00,,,0.00,1196.000000,,2013-05-15 01:52:00,
2013-05-14 16:11:00,77.0,66.0,30.35,East,93,25.0,37.0,70,0.00,,,0.00,1090.000000,,2013-05-15 02:11:00,
2013-05-14 16:21:00,77.0,66.0,30.35,East,93,25.0,37.0,70,0.00,,,0.00,1090.000000,,2013-05-15 02:21:00,
2013-05-14 16:31:00,77.0,66.0,30.35,East,93,25.0,37.0,70,0.00,,,0.00,1090.000000,,2013-05-15 02:31:00,
2013-05-14 16:42:00,77.0,66.0,30.35,East,93,25.0,37.0,70,0.00,,,0.00,1090.000000,,2013-05-15 02:42:00,
2013-05-14 16:51:00,77.0,66.0,30.35,East,93,25.0,37.0,70,0.00,,,0.00,1090.000000,,2013-05-15 02:51:00,
2013-05-14 16:53:00,78.0,67.0,30.36,East,87,19.0,37.0,69,0.00,,,0.00,898.000000,,2013-05-15 02:53:00,
2013-05-14 17:12:00,78.0,67.0,30.36,East,87,19.0,37.0,69,0.00,,,0.00,898.000000,,2013-05-15 03:12:00,
2013-05-14 17:21:00,78.0,67.0,30.36,East,87,19.0,37.0,69,0.00,,,0.00,898.000000,,2013-05-15 03:21:00,
2013-05-14 17:33:00,78.0,67.0,30.36,East,87,19.0,37.0,69,0.00,,,0.00,898.000000,,2013-05-15 03:33:00,
2013-05-14 17:44:00,78.0,67.0,30.36,East,87,19.0,37.0,69,0.00,,,0.00,898.000000,,2013-05-15 03:44:00,
2013-05-14 18:23:00,75.0,64.0,30.37,East,84,21.0,32.0,69,0.00,,,0.00,521.000000,,2013-05-15 04:23:00,
2013-05-14 18:33:00,75.0,64.0,30.37,East,84,21.0,32.0,69,0.00,,,0.00,521.000000,,2013-05-15 04:33:00,
2013-05-14 18:42:00,75.0,64.0,30.37,East,84,21.0,32.0,69,0.00,,,0.00,521.000000,,2013-05-15 04:42:00,
2013-05-14 18:52:00,75.0,64.0,30.37,East,84,21.0,32.0,69,0.00,,,0.00,521.000000,,2013-05-15 04:52:00,
2013-05-14 19:22:00,75.0,67.0,30.38,East,79,16.0,31.0,76,0.00,,,0.00,69.000000,,2013-05-15 05:22:00,
2013-05-14 19:32:00,75.0,67.0,30.38,East,79,16.0,31.0,76,0.00,,,0.00,69.000000,,2013-05-15 05:32:00,
2013-05-14 19:42:00,75.0,67.0,30.38,East,79,16.0,31.0,76,0.00,,,0.00,69.000000,,2013-05-15 05:42:00,
2013-05-14 19:52:00,75.0,67.0,30.38,East,79,16.0,31.0,76,0.00,,,0.00,69.000000,,2013-05-15 05:52:00,
2013-05-14 20:11:00,73.0,63.0,30.39,ENE,75,19.0,32.0,70,0.00,,,0.00,110.000000,,2013-05-15 06:11:00,
2013-05-14 20:21:00,73.0,63.0,30.39,ENE,75,19.0,32.0,70,0.00,,,0.00,110.000000,,2013-05-15 06:21:00,
2013-05-14 20:31:00,73.0,63.0,30.39,ENE,75,19.0,32.0,70,0.00,,,0.00,110.000000,,2013-05-15 06:31:00,
2013-05-14 20:41:00,73.0,63.0,30.39,ENE,75,19.0,32.0,70,0.00,,,0.00,110.000000,,2013-05-15 06:41:00,
2013-05-14 20:51:00,73.0,63.0,30.39,ENE,75,19.0,32.0,70,0.00,,,0.00,110.000000,,2013-05-15 06:51:00,
2013-05-14 21:11:00,74.0,67.0,30.40,East,89,16.0,28.0,78,0.00,,,0.00,1.000000,,2013-05-15 07:11:00,
2013-05-14 21:21:00,74.0,67.0,30.40,East,89,16.0,28.0,78,0.00,,,0.00,1.000000,,2013-05-15 07:21:00,
2013-05-14 21:32:00,74.0,67.0,30.40,East,89,16.0,28.0,78,0.00,,,0.00,1.000000,,2013-05-15 07:32:00,
2013-05-14 21:41:00,74.0,67.0,30.40,East,89,16.0,28.0,78,0.00,,,0.00,1.000000,,2013-05-15 07:41:00,
2013-05-14 21:52:00,74.0,67.0,30.40,East,89,16.0,28.0,78,0.00,,,0.00,1.000000,,2013-05-15 07:52:00,
2013-05-14 22:12:00,74.0,67.0,30.41,ENE,74,18.0,30.0,79,0.00,,,0.00,0.000000,,2013-05-15 08:12:00,
2013-05-14 22:21:00,74.0,67.0,30.41,ENE,74,18.0,30.0,79,0.00,,,0.00,0.000000,,2013-05-15 08:21:00,
2013-05-14 22:32:00,74.0,67.0,30.41,ENE,74,18.0,30.0,79,0.00,,,0.00,0.000000,,2013-05-15 08:32:00,
2013-05-14 22:42:00,74.0,67.0,30.41,ENE,74,18.0,30.0,79,0.00,,,0.00,0.000000,,2013-05-15 08:42:00,
2013-05-14 22:52:00,74.0,67.0,30.41,ENE,74,18.0,30.0,79,0.00,,,0.00,0.000000,,2013-05-15 08:52:00,
2013-05-14 22:53:00,72.0,65.0,30.40,East,82,20.0,34.0,80,0.00,,,0.00,0.000000,,2013-05-15 08:53:00,
2013-05-14 23:21:00,72.0,65.0,30.40,East,82,20.0,34.0,80,0.00,,,0.00,0.000000,,2013-05-15 09:21:00,
2013-05-14 23:32:00,72.0,65.0,30.40,East,82,20.0,34.0,80,0.00,,,0.00,0.000000,,2013-05-15 09:32:00,
2013-05-14 23:42:00,72.0,65.0,30.40,East,82,20.0,34.0,80,0.00,,,0.00,0.000000,,2013-05-15 09:42:00,